SPOT 7

Last updated on Mon Oct 14 2024 00:02:24 GMT+0000 (Coordinated Universal Time)

1 40053U 14034A 24287.52232246 .00002487 00000+0 53018-3 0 9993 2 40053 98.1458 352.2720 0001186 80.1125 280.0209 14.59783438547855
UTC large
Height (km)
Speed (km/s)
/
Latitude / Longitude
Inclination (degrees)
Orbital Period (minutes)
Azimuth
Elevation
Range (km)
Doppler Factor

Next 0 passes for location: London (51.5072 / 0.1276)

Sorry there are no passes over London.